Location: Amsterdam
(30.7274°N, 84.4357°W)
Time: 19:28:48
(UTC+00:00)

Altair - Pass Details

Date: 10 August 2024
Orbit: 1501 x 1682 km, 47.2° (Epoch: 07 September)

Event Time Altitude Azimuth Distance (km) Brightness Sun altitude
Rises 14:21:17 0° 177° (S) 4,917 10.2 41.5°
Reaches altitude 10° 14:26:10 10° 158° (SSE) 3,921 10.1 42.6°
Maximum altitude 14:31:42 16° 124° (ESE) 3,417 10.4 43.7°
Drops below altitude 10° 14:37:11 10° 89° (E) 3,875 10.6 44.9°
Sets 14:41:52 0° 70° (ENE) 4,832 10.7 45.9°
